Content
SEND FEEDBACK

Daily
Averages
Monthly
Summary
United States of America

ROMEO, COLORADO


Home > North America > United States > Colorado
Elevation: 7688 feet     Latitude: 37 11N     Longitude: 105 57W

WEATHER
 
SELECT A DAY
Number of Records: 191,543;   Date Range: 1/1/95 - 8/17/14
 
SHARE

PRINT THIS DATA

[ ← Previous Day ]
WEATHER ALMANAC - JANUARY 23, 2013
[ Next Day → ]
[ °C ]   °F
Weather ElementAverageHighLow
Temperature3.5 °F28.9 °F (2:52 pm)-20 °F (6:52 am)
Dewpoint-5.8 °F7 °F (12:52 pm)-25.1 °F (5:52 am)
Humidity69 %91 % (8:52 am)36 % (2:52 pm)
Barometer30.77 in30.96 in (7:52 am)30.62 in (11:52 pm)
Wind Speed2.4 mph6.9 mph (6:52 pm)
Weather ElementAverage
Visibility9.8 mi
Wind DirectionESE (120.4 °)

Weather ElementTotal
Precipitation---
Heating Degree Days60.6 (Base 65)
Averaged from 23 records on January 23, 2013
WEATHER CONDITIONS BREAKOUT
WIND DIRECTION BREAKOUT
WEATHER BY HOUR - JANUARY 23, 2013
[ °C ]   °F
Local TimeTemperatureDewpointHumidityBarometerVisibilityWind DirectionWind SpeedGust SpeedPrecipitationEventsConditions
1:52 AM-16.1 °F-20.9 °F79 %30.73 in10.0 miSE (140°)4.6 mphClear
2:52 AM-13.0 °F-18.9 °F75 %30.71 in10.0 miCalmClear
3:52 AM-13.0 °F-18.0 °F78 %30.70 in10.0 miCalmClear
4:52 AM-18.0 °F-23.1 °F78 %30.79 in10.0 miWest (280°)3.5 mphClear
5:52 AM-18.9 °F-25.1 °F74 %30.85 in10.0 miEast (80°)3.5 mphClear
6:52 AM-20.0 °F-25.1 °F78 %30.88 in8.0 miCalmClear
7:52 AM-17.0 °F-20.9 °F82 %30.96 in10.0 miCalmClear
8:52 AM-4.0 °F-6.0 °F91 %30.93 in10.0 miCalmClear
9:52 AM1.0 °F-4.0 °F79 %30.90 in10.0 miCalmClear
10:52 AM17.1 °F1.9 °F52 %30.76 in10.0 miCalmClear
11:52 AM26.1 °F6.1 °F43 %30.70 in10.0 miNorth (350°)3.5 mphClear
12:52 PM28.0 °F7.0 °F41 %30.65 in10.0 miNNE (20°)4.6 mphClear
1:52 PM28.0 °F6.1 °F39 %30.68 in10.0 miNorth (350°)3.5 mphClear
2:52 PM28.9 °F5.0 °F36 %30.65 in10.0 miNorth (360°)3.5 mphClear
3:52 PM27.0 °F6.1 °F41 %30.66 in10.0 miCalmClear
4:52 PM21.0 °F7.0 °F55 %30.73 in10.0 miCalmClear
5:52 PM12.9 °F3.9 °F67 %30.79 in10.0 miCalmClear
6:52 PM5.0 °F0.0 °F80 %30.86 in10.0 miWest (260°)6.9 mphClear
7:52 PM7.0 °F1.9 °F80 %30.83 in10.0 miNNW (330°)5.8 mphClear
8:52 PM1.9 °F-0.9 °F88 %30.77 in9.0 miNNE (30°)3.5 mphClear
9:52 PM-0.9 °F-5.1 °F83 %30.77 in10.0 miCalmClear
10:52 PM-2.9 °F-8.0 °F79 %30.70 in10.0 miWest (280°)4.6 mphClear
11:52 PM0.0 °F-2.9 °F88 %30.62 in9.0 miWNW (290°)6.9 mphClear
Hourly data recorded from KALS, located miles away from Romeo, Colorado







STORIES FROM OUR PARTNERS